Погода в Виллингили

Мальдивы     0°45′21″N   73°26′03″E
темп.,
°C
ветер,
м/с
пор.,
м/с
влажн.,
%
обл.,
%
осадки,
мм/ч
давл.,
гПа
погр.,
м
10 августа, ср
ср1023:00+28юз2271100 0.0 1009626
02:00+27юз116922 0.0 1008518
05:00+27всв007053 0.0 1008490
08:00+27ссв227255 0.0 1009551
11:00+27с1272100 0.0 1009559
14:00+28с127024 0.0 1007650
17:00+28с227082 0.0 1007732
20:00+28ссз12705 0.0 1009728
11 августа, чт
чт1123:00+28вюв117139 0.0 1010652
02:00+27ююв11725 0.1 1008513
05:00+27в11730 0.1 1008526
08:00+27в33753 0.0 1010626
11:00+28в33744 0.0 1010694
14:00+28в337216 0.0 1008776
17:00+28в33725 0.0 1008796
20:00+28вюв337354 0.0 1010737
12 августа, пт
пт1223:00+28в44757 0.1 1011776
02:00+27в44775 1.1 1009596
05:00+28в4476100 1.2 1009762
08:00+28в557796 0.2 1011721
11:00+28вюв447788 0.4 1010682
14:00+28вюв447512 0.3 1008780
17:00+28вюв447428 0.3 1008832
20:00+28вюв55785 0.9 1010522
13 августа, сб
сб1323:00+28в55796 2.3 1011573
02:00+27вюв557776 1.3 1009579
05:00+28вюв55769 1.3 1009800
08:00+28вюв5574100 0.1 1011816
11:00+28вюв457487 0.1 1011840
14:00+28вюв447440 0.0 1008841
17:00+28в447464 0.6 1008695
20:00+28в447498 0.0 1010796
14 августа, вс
вс1423:00+28вюв3375100 0.0 1010677
02:00+28вюв347697 0.1 1008681
05:00+28в347719 0.9 1009528
08:00+28в4475100 1.6 1011692
11:00+28в4476100 2.0 1011683
14:00+28в3375100 0.0 1009743
17:00+28в4475100 0.2 1009751
20:00+28в3475100 0.1 1010724